Pine River, MN

7:55 PM CDT on April 26, 2018 (GMT -0500)
Pine River Regional

Weather History for KPWC - April, 2013

Change the Weather History Date:

Monday, April 8, 2013

  Actual Average Record
Temperature  
Mean Temperature 34 °F -  
Max Temperature 37 °F 47 °F 71 °F (1997)
Min Temperature 30 °F 27 °F -2 °F (2018)
Degree Days  
Heating Degree Days 32    
Moisture  
Dew Point 31 °F    
Average Humidity 88    
Maximum Humidity 100    
Minimum Humidity 69    
Precipitation  
Precipitation 0.00 in - - ()
Sea Level Pressure  
Sea Level Pressure 29.91 in    
Wind  
Wind Speed 6 mph (NNE)    
Max Wind Speed 16 mph    
Max Gust Speed 18 mph    
Visibility 7 miles    
Events Rain    
Averages and records for this station are not official NWS values.
T = Trace of Precipitation, MM = Missing Value Source: NWS Daily Summary

Daily Weather History Graph

Daily Weather History Graph

Search for Another Location

Airport or City:

Astronomy

Apr. 08, 2013 Rise Set
Actual Time 6:42 AM CDT 7:56 PM CDT
Civil Twilight 6:11 AM CDT 8:27 PM CDT
Nautical Twilight 5:34 AM CDT 9:05 PM CDT
Astronomical Twilight 4:54 AM CDT 9:45 PM CDT
Moon 5:38 AM CDT (4/8) 6:28 PM CDT (4/8)
Length of Visible Light 14h 16m
Length of Day
13h 13m
Waning Crescent, 3% of the Moon is Illuminated
Apr 8
Waning Crescent
Apr 10
New
Apr 18
First Quarter
Apr 25
Full
May 2
Last Quarter

Hourly Weather History & Observations

Time (CDT) Temp. Windchill Dew Point Humidity Pressure Visibility Wind Dir Wind Speed Gust Speed Precip Events Conditions
12:13 AM 33.8 °F 29.6 °F 32.0 °F 93% 29.83 in 4.0 mi East 4.6 mph - 0.01 in Rain Light Rain
12:33 AM 33.8 °F 28.6 °F 32.0 °F 93% 29.82 in 4.0 mi East 5.8 mph - 0.01 in   Drizzle
12:53 AM 33.8 °F 29.6 °F 32.0 °F 93% 29.81 in 5.0 mi East 4.6 mph - N/A Rain Light Rain
1:11 AM 33.8 °F 29.6 °F 32.0 °F 93% 29.81 in 5.0 mi ENE 4.6 mph - N/A Rain Rain
1:33 AM 33.8 °F 30.8 °F 32.0 °F 93% 29.81 in 5.0 mi ENE 3.5 mph - N/A   Light Drizzle
1:53 AM 33.8 °F 30.8 °F 32.0 °F 93% 29.81 in 5.0 mi ENE 3.5 mph - N/A   Overcast
2:13 AM 33.8 °F 30.8 °F 32.0 °F 93% 29.81 in 5.0 mi ENE 3.5 mph - N/A   Overcast
2:32 AM 33.8 °F 30.8 °F 33.8 °F 100% 29.80 in 5.0 mi East 3.5 mph - N/A   Overcast
2:53 AM 33.8 °F 29.6 °F 32.0 °F 93% 29.79 in 4.0 mi East 4.6 mph - N/A   Overcast
3:13 AM 33.8 °F - 33.8 °F 100% 29.80 in 4.0 mi Calm Calm - N/A   Light Drizzle
3:33 AM 33.8 °F 30.8 °F 33.8 °F 100% 29.79 in 2.5 mi ENE 3.5 mph - N/A   Light Drizzle
3:52 AM 33.8 °F - 33.8 °F 100% 29.80 in 4.0 mi Calm Calm - N/A   Light Drizzle
4:13 AM 33.8 °F 30.8 °F 33.8 °F 100% 29.80 in 4.0 mi North 3.5 mph - N/A   Light Drizzle
4:33 AM 33.8 °F 30.8 °F 33.8 °F 100% 29.80 in 2.5 mi North 3.5 mph - N/A   Light Drizzle
4:52 AM 33.8 °F 28.6 °F 32.0 °F 93% 29.81 in 2.0 mi North 5.8 mph - N/A   Light Drizzle
5:13 AM 33.8 °F 28.6 °F 32.0 °F 93% 29.81 in 2.5 mi NNE 5.8 mph - N/A   Light Drizzle
5:53 AM 33.8 °F 28.6 °F 32.0 °F 93% 29.80 in 3.0 mi North 5.8 mph - N/A   Overcast
6:12 AM 33.8 °F 27.0 °F 32.0 °F 93% 29.80 in 4.0 mi North 8.1 mph - N/A   Overcast
6:32 AM 33.8 °F 27.7 °F 32.0 °F 93% 29.80 in 3.0 mi NNE 6.9 mph - N/A   Overcast
6:52 AM 33.8 °F 28.6 °F 32.0 °F 93% 29.80 in 3.0 mi NNE 5.8 mph - N/A   Overcast
7:13 AM 33.8 °F 27.7 °F 32.0 °F 93% 29.80 in 2.5 mi NNE 6.9 mph - N/A   Overcast
7:33 AM 33.8 °F 27.7 °F 32.0 °F 93% 29.80 in 5.0 mi NNE 6.9 mph - N/A   Overcast
7:52 AM 33.8 °F 27.0 °F 32.0 °F 93% 29.80 in 5.0 mi NNE 8.1 mph - N/A   Overcast
8:13 AM 33.8 °F 30.8 °F 33.8 °F 100% 29.81 in 7.0 mi North 3.5 mph - N/A   Overcast
8:32 AM 33.8 °F 29.6 °F 33.8 °F 100% 29.82 in 7.0 mi NE 4.6 mph - N/A   Overcast
8:51 AM 33.8 °F - 33.8 °F 100% 29.83 in 7.0 mi Calm Calm - N/A   Overcast
9:12 AM 33.8 °F 30.8 °F 33.8 °F 100% 29.84 in 7.0 mi North 3.5 mph - N/A   Overcast
9:32 AM 33.8 °F 28.6 °F 33.8 °F 100% 29.84 in 7.0 mi North 5.8 mph - N/A   Overcast
9:52 AM 33.8 °F 27.0 °F 33.8 °F 100% 29.84 in 5.0 mi North 8.1 mph - N/A   Overcast
10:12 AM 33.8 °F 27.0 °F 33.8 °F 100% 29.86 in 5.0 mi North 8.1 mph - N/A   Overcast
10:33 AM 33.8 °F 26.4 °F 33.8 °F 100% 29.87 in 5.0 mi North 9.2 mph - N/A   Overcast
10:53 AM 33.8 °F 26.4 °F 33.8 °F 100% 29.86 in 5.0 mi North 9.2 mph - N/A   Overcast
11:13 AM 35.6 °F 27.5 °F 33.8 °F 93% 29.87 in 7.0 mi NNE 11.5 mph - N/A   Overcast
11:33 AM 35.6 °F 27.1 °F 33.8 °F 93% 29.87 in 7.0 mi NNE 12.7 mph 17.3 mph N/A   Overcast
11:53 AM 35.6 °F 28.6 °F 33.8 °F 93% 29.88 in 7.0 mi NNE 9.2 mph - N/A   Overcast
12:13 PM 35.6 °F 28.6 °F 33.8 °F 93% 29.87 in 7.0 mi North 9.2 mph - N/A   Overcast
12:33 PM 37.4 °F 30.3 °F 33.8 °F 87% 29.87 in 7.0 mi NNE 10.4 mph - N/A   Overcast
12:53 PM 37.4 °F 30.8 °F 33.8 °F 87% 29.88 in 7.0 mi NNE 9.2 mph - N/A   Overcast
1:12 PM 37.4 °F 30.8 °F 33.8 °F 87% 29.89 in 7.0 mi North 9.2 mph - N/A   Overcast
1:32 PM 37.4 °F 31.4 °F 33.8 °F 87% 29.90 in 7.0 mi NNE 8.1 mph - N/A   Overcast
1:53 PM 37.4 °F 30.8 °F 33.8 °F 87% 29.91 in 10.0 mi North 9.2 mph - N/A   Overcast
2:12 PM 37.4 °F 29.8 °F 32.0 °F 81% 29.91 in 10.0 mi North 11.5 mph - N/A   Overcast
2:32 PM 37.4 °F 31.4 °F 32.0 °F 81% 29.91 in 10.0 mi North 8.1 mph - N/A   Overcast
2:53 PM 35.6 °F 28.6 °F 32.0 °F 87% 29.92 in 10.0 mi North 9.2 mph - N/A   Overcast
3:13 PM 35.6 °F 29.2 °F 32.0 °F 87% 29.93 in 10.0 mi North 8.1 mph - N/A   Overcast
3:33 PM 37.4 °F 30.8 °F 32.0 °F 81% 29.93 in 10.0 mi North 9.2 mph - N/A   Overcast
3:53 PM 37.4 °F 31.4 °F 32.0 °F 81% 29.94 in 10.0 mi North 8.1 mph - N/A   Overcast
4:12 PM 37.4 °F 29.3 °F 32.0 °F 81% 29.94 in 10.0 mi North 12.7 mph - N/A   Overcast
4:33 PM 37.4 °F 28.2 °F 32.0 °F 81% 29.93 in 10.0 mi North 16.1 mph - N/A   Overcast
4:52 PM 37.4 °F 30.3 °F 32.0 °F 81% 29.96 in 10.0 mi North 10.4 mph - N/A   Overcast
5:13 PM 37.4 °F 29.8 °F 32.0 °F 81% 29.97 in 10.0 mi North 11.5 mph - N/A   Overcast
5:33 PM 37.4 °F 28.9 °F 32.0 °F 81% 29.99 in 10.0 mi NNW 13.8 mph 17.3 mph N/A   Overcast
5:52 PM 35.6 °F 28.0 °F 32.0 °F 87% 30.00 in 10.0 mi North 10.4 mph - N/A   Overcast
6:12 PM 35.6 °F 28.0 °F 30.2 °F 81% 30.01 in 10.0 mi North 10.4 mph - N/A   Overcast
6:33 PM 35.6 °F 28.6 °F 30.2 °F 81% 30.03 in 10.0 mi North 9.2 mph - N/A   Overcast
6:53 PM 35.6 °F 28.6 °F 30.2 °F 81% 30.03 in 10.0 mi North 9.2 mph - N/A   Overcast
7:13 PM 35.6 °F 27.5 °F 30.2 °F 81% 30.04 in 10.0 mi North 11.5 mph 17.3 mph N/A   Overcast
7:32 PM 35.6 °F 28.6 °F 30.2 °F 81% 30.04 in 10.0 mi North 9.2 mph - N/A   Overcast
7:53 PM 35.6 °F 28.0 °F 28.4 °F 75% 30.05 in 10.0 mi North 10.4 mph - N/A   Overcast
8:13 PM 35.6 °F 29.2 °F 28.4 °F 75% 30.06 in 10.0 mi North 8.1 mph - N/A   Overcast
8:33 PM 35.6 °F 30.7 °F 28.4 °F 75% 30.06 in 10.0 mi North 5.8 mph - N/A   Overcast
8:52 PM 35.6 °F 29.9 °F 28.4 °F 75% 30.07 in 10.0 mi North 6.9 mph - N/A   Overcast
9:13 PM 35.6 °F 29.9 °F 28.4 °F 75% 30.07 in 10.0 mi North 6.9 mph - N/A   Overcast
9:33 PM 35.6 °F 30.7 °F 26.6 °F 70% 30.09 in 10.0 mi North 5.8 mph - N/A   Overcast
9:53 PM 35.6 °F 29.9 °F 26.6 °F 70% 30.09 in 10.0 mi North 6.9 mph - N/A   Overcast
10:13 PM 35.6 °F 29.9 °F 26.6 °F 70% 30.09 in 10.0 mi North 6.9 mph - N/A   Overcast
10:32 PM 35.6 °F 31.7 °F 26.6 °F 70% 30.11 in 10.0 mi NNW 4.6 mph - N/A   Overcast
10:53 PM 33.8 °F 28.6 °F 26.6 °F 75% 30.12 in 10.0 mi NNW 5.8 mph - N/A   Overcast
11:13 PM 32.0 °F 22.5 °F 24.8 °F 75% 30.14 in 10.0 mi NW 12.7 mph 17.3 mph N/A   Overcast
11:32 PM 30.2 °F 22.6 °F 23.0 °F 75% 30.14 in 10.0 mi NNW 8.1 mph 17.3 mph N/A   Overcast
11:53 PM 30.2 °F 19.8 °F 21.2 °F 69% 30.15 in 10.0 mi NNW 13.8 mph 18.4 mph N/A   Overcast